STARLINK-35591 (66984 NORAD) Tracking and Keplerian Element Data

This shows tracking and keplerian element data for the satellite.

Feedback or suggestion? Click here.




ElementValue
Catalog66984
NameSTARLINK-35591
Epoch Orbit303
Epoch Day354.25003472
Epoch Year2025
RAAN121.0468
Inclination43.0017
Eccentricity0.0001466
Argument of Perigee273.5893
Mean Anonmoly138.0508
Mean Motion15.80860585
Decay Rate-0.01590013
L11 66984U 25288AB 25354.25003472 -.01590013 00000+0 -91101-2 0 9994
L22 66984 43.0017 121.0468 0001466 273.5893 138.0508 15.80860585 3033



Live tracking and technical data element details for STARLINK-35591 (NORAD 66984). STARLINK-35591 can be tracked NOW for your location showing map with azimuth and elevation plus other details from your city location.







IsCatalogInMostPopularTable: catalog: 66984, numindb: 38
Update: records affected: 1



GetName: 66984 STARLINK-35591

Hit Count: updated at: Tue, 17 Feb 2026 12:18:49 GMT